Regional Weather Roundup
Issued by NWS

Home | Current Version | Previous Version | Text Only | Print | Product List | Glossary Off
Versions: 1 2 3 4 5 6 7 8 9 10 11 12 13 14 15 16 17 18 19 20 21 22 23 24 25 26 27 28 29 30 31 32 33 34 35 36 37 38 39 40 41 42 43 44 45 46 47 48

000
ASUS45 KSLC 290310
RWRUT

UTAH REGIONAL WEATHER ROUNDUP
NATIONAL WEATHER SERVICE SALT LAKE CITY UT
900 PM MDT SAT MAR 28 2015

UTZ001>011-023>025-290400-

NORTHERN UTAH

CITY           SKY/WX    TMP DP  RH WIND       PRES   REMARKS
BRIGHAM CITY   CLEAR     55  19  24 NW14      30.19R
HILL AFB       NOT AVBL
LOGAN          CLEAR     49  28  44 N6        30.19R
OGDEN          CLEAR     57  29  34 N5        30.16R
PROVO AIRPORT  PTCLDY    59  36  41 NW21      30.14R
SALT LAKE CITY PTCLDY    60  34  37 NW7       30.16R
VERNAL         PTCLDY    62  11  13 W8        30.08R
WENDOVER       CLEAR     63  12  14 N15G21    30.18R
HEBER CITY     MOCLDY    52  21  30 E6        30.18R
WEST JORDAN    CLEAR     57  30  35 CALM      30.19R

$$

UTZ012>022-026-027-290400-

SOUTHERN/CENTRAL UTAH

CITY           SKY/WX    TMP DP  RH WIND       PRES   REMARKS
BLANDING       CLEAR     60  19  20 W5        30.22R
BRYCE CANYON   CLEAR     48  23  37 W9        30.27R
CEDAR CITY     PTCLDY    61  20  20 S8        30.15R
DELTA          CLEAR     61  14  16 N12G20    30.13R
HANKSVILLE     CLEAR     70  21  16 S3        30.05R
MILFORD        PTCLDY    60  22  23 SE6       30.11R
MOAB/CYNLANDS  CLEAR     67  20  16 W14       30.01R
PRICE          CLEAR     61  18  18 N6        30.15R
ST GEORGE      MOCLDY    73  23  15 S5        30.05R

$$

REGIONAL REPORTS     COLORADO/ARIZONA

CITY           SKY/WX    TMP DP  RH WIND       PRES   REMARKS
CRAIG, CO      MOCLDY    49  30  48 SW5       30.12R
GRAND JUNCTION CLEAR     55  22  27 E3        30.03R
RIFLE          MOCLDY    58  24  27 CALM      30.07R
MONTROSE       CLEAR     55  26  32 SE7       30.12R
CORTEZ         CLEAR     47  20  34 NE7       30.17R
PAGE, AZ       CLEAR     75  17  11 W6        30.07R
GRAND CANYON   CLEAR     42  18  37 CALM      30.26R
KINGMAN        CLEAR     65  24  21 S13       30.08R
FLAGSTAFF      CLEAR     53  20  27 SW6       30.30R

$$

REGIONAL REPORTS    NEVADA/IDAHO/WYOMING

CITY           SKY/WX    TMP DP  RH WIND       PRES   REMARKS
LAS VEGAS, NV  CLEAR     82  17   9 SW14      29.94R
ELY            PTCLDY    57  13  17 N13       30.24R
ELKO           CLEAR     53   9  17 NE7       30.27R
POCATELLO, ID  CLEAR     49  18  29 SW25G32   30.22F
BURLEY         CLEAR     48  21  34 SW14G23   30.25R
EVANSTON, WY   CLEAR     49  23  36 W8G21     30.24R
ROCK SPRINGS   PTCLDY    50  19  29 W14       30.16R
KEMMERER       CLEAR     43  23  45 W14       30.21R

$$


USA.gov is the U.S. government's official web portal to all federal, state and local government web resources and services.